Theta_e
323 323 323 322 322 321 321 322 321 320 319 319 319 319 318 318 318 318 318 318 319 320 321 322 323 325 316 304 309 317 353 344 323 316 315 314 311 308 305 308 311 312 313 317 321 321 320
322 322 322 322 321 321 321 321 320 320 319 319 318 319 318 318 318 318 318 317 319 320 320 322 324 326 315 299 314 319 326 319 317 314 313 314 312 311 308 308 310 313 311 314 318 318 320
322 322 321 321 321 320 320 320 320 319 319 319 318 318 318 318 318 318 317 317 319 319 320 322 326 324 313 305 318 316 317 318 316 314 312 315 314 309 309 308 315 314 308 312 313 315 316
321 321 321 320 320 320 319 319 320 318 318 318 318 318 318 318 317 317 316 318 318 319 321 324 328 316 302 313 318 318 312 314 315 318 315 317 314 310 307 310 310 309 308 303 312 315 316
323 323 321 320 319 319 319 319 318 318 318 318 317 318 317 317 317 316 316 317 319 321 323 325 311 307 303 320 314 315 313 313 310 310 312 320 312 305 307 303 300 303 299 303 308 314 316
323 322 322 320 319 319 320 320 319 318 318 318 318 316 316 315 315 315 316 317 317 319 320 324 322 306 309 307 310 313 312 311 308 310 311 308 303 300 298 298 294 298 298 301 302 310 315
323 322 321 321 321 320 320 319 318 318 317 317 316 315 315 315 314 314 310 309 303 303 308 299 299 308 310 312 313 310 312 309 307 306 299 302 299 296 299 301 304 302 299 300 304 310 311
322 322 321 320 320 320 319 318 317 317 317 317 316 315 314 314 314 314 306 307 307 309 302 309 310 310 312 309 305 306 309 305 303 300 301 299 296 303 303 304 302 300 298 298 304 313 308
321 321 320 320 319 319 318 318 317 317 317 316 316 315 314 313 312 307 304 306 310 306 300 306 308 308 308 310 306 304 308 304 303 300 300 297 302 306 304 302 300 298 295 298 301 306 310
321 320 320 320 319 318 317 317 316 317 316 316 315 314 313 313 304 306 306 307 309 309 295 300 304 310 308 308 303 311 308 308 303 302 301 300 305 305 300 301 300 294 303 303 304 300 295
321 320 320 319 319 318 316 316 316 316 315 316 316 313 311 312 304 309 312 312 304 307 287 306 304 311 305 305 303 306 310 307 302 303 301 300 302 301 300 301 303 300 304 302 304 297 295
320 320 319 319 319 317 316 316 316 315 315 315 315 312 311 308 304 310 312 312 306 295 290 302 304 302 302 300 303 307 306 308 307 303 300 302 306 304 304 306 304 305 302 299 296 295 291
320 320 319 319 318 316 316 315 316 315 315 314 313 311 309 312 306 313 311 307 296 291 303 302 299 300 299 298 302 304 302 300 297 294 292 300 303 306 307 300 302 300 295 290 290 290 290
320 319 319 318 317 316 315 315 315 315 314 313 309 309 306 311 309 309 308 302 292 300 300 303 302 300 299 301 300 301 299 297 298 297 294 293 296 304 306 305 300 297 295 290 287 287 291
320 319 319 318 317 316 315 315 315 314 313 312 308 303 302 307 311 308 305 295 296 300 308 302 301 298 296 301 302 299 297 297 299 300 295 294 298 308 308 305 304 297 294 296 291 291 293
320 319 319 319 317 316 315 315 315 314 313 311 306 308 310 312 313 309 302 296 301 307 312 309 299 300 296 297 300 297 297 302 302 303 300 299 297 303 308 306 307 304 303 297 294 289 289
320 319 319 318 318 317 316 315 315 314 313 310 310 310 316 314 312 306 298 299 307 313 313 308 304 298 298 300 300 297 299 304 306 304 303 299 299 302 304 302 300 303 300 297 296 293 291
319 319 318 318 318 317 316 315 314 313 311 307 308 309 314 312 303 299 300 306 307 311 312 309 307 305 303 304 299 301 302 305 311 310 306 305 299 297 298 303 304 303 300 298 293 292 292
319 319 318 318 318 317 316 314 313 312 312 308 306 309 315 311 298 297 302 306 310 309 311 310 310 310 307 303 303 305 308 312 314 309 305 304 296 293 296 297 302 300 300 300 295 294 292
319 319 318 318 318 317 316 314 313 313 312 306 309 308 309 307 302 301 300 303 307 315 313 311 311 310 307 305 305 304 307 311 312 311 322 308 294 293 291 294 298 300 302 300 296 292 292
319 318 318 318 318 317 316 314 313 313 312 306 308 307 307 303 306 303 301 303 305 309 313 311 310 309 307 304 303 303 305 306 309 314 307 302 297 296 298 300 303 303 302 303 298 297 295
319 318 318 318 318 317 316 314 314 314 311 309 304 305 305 304 307 305 301 302 307 311 309 308 308 310 308 304 303 302 303 301 301 304 301 300 297 299 296 302 303 302 304 309 306 307 304
318 317 317 317 318 317 317 314 314 314 310 305 308 309 307 305 307 303 302 308 310 312 312 312 311 307 307 307 308 306 309 307 309 300 299 298 296 294 292 299 300 294 301 309 313 314 308
318 317 317 317 318 317 317 315 315 314 313 307 305 307 306 304 307 307 308 310 309 309 308 311 311 307 310 310 308 307 303 303 302 303 301 297 296 294 292 295 289 298 312 318 315 316 316
317 316 316 316 317 317 316 315 315 315 315 309 306 307 304 301 307 306 307 308 307 307 310 311 312 312 310 307 301 298 298 300 302 303 299 299 297 294 292 290 295 303 308 307 310 311 319
317 316 316 315 317 316 315 315 315 315 315 307 306 310 306 303 303 309 305 305 301 301 306 310 314 310 309 302 300 294 292 296 298 303 299 299 298 298 292 291 291 299 312 316 316 304 318
316 316 315 315 316 315 315 315 315 316 316 312 307 309 307 302 305 305 303 302 304 302 301 305 307 306 305 299 297 295 296 301 296 295 297 297 297 295 294 293 298 306 314 315 298 301 318
315 315 315 314 315 314 314 314 314 316 317 313 307 310 309 303 305 309 311 305 304 303 301 303 304 304 303 299 296 296 297 300 299 300 299 297 296 295 296 294 295 313 314 304 309 315 316
314 314 314 314 314 313 313 314 314 316 316 314 304 310 312 307 306 310 313 315 313 309 303 300 302 301 304 301 300 299 298 299 297 297 300 297 300 299 299 300 308 308 311 313 309 310 310
Wind_Speed
17 17 16 16 16 16 16 15 16 16 16 16 16 16 15 14 14 14 14 14 15 14 14 14 15 15 5 2 10 5 3 5 3 2 2 3 4 1 3 6 8 1 3 6 5 7 4
17 17 17 17 17 17 17 16 17 17 17 16 16 16 15 14 14 14 14 14 14 14 14 13 13 13 1 3 3 7 5 3 4 3 1 4 4 4 4 5 1 4 5 2 6 6 3
17 17 18 18 17 17 17 17 17 18 17 16 17 16 16 14 14 14 14 14 14 14 13 12 11 4 0 15 3 7 3 3 1 2 3 4 4 3 4 7 5 4 5 8 4 6 7
18 17 18 18 18 18 18 18 17 18 18 16 18 15 16 14 14 14 14 13 14 13 11 10 6 1 9 5 3 9 2 7 4 6 4 8 5 4 3 4 7 5 5 4 6 6 3
15 15 18 18 18 18 19 19 19 19 18 16 19 15 15 14 14 13 12 14 15 12 8 5 2 1 11 8 3 7 4 5 2 2 3 5 3 2 6 3 6 7 1 5 7 4 3
16 16 15 18 18 17 16 18 19 19 18 18 16 17 16 14 12 12 13 15 7 7 2 4 4 3 6 3 4 4 4 2 1 5 7 7 6 4 4 6 2 4 6 6 7 3 2
16 16 16 16 16 17 18 19 20 20 20 18 18 18 15 13 10 9 8 2 4 2 1 10 6 5 4 6 3 2 4 4 3 5 1 5 5 6 8 6 5 5 4 8 12 5 4
16 17 17 18 18 18 20 20 20 20 19 18 19 17 14 10 8 6 1 3 5 4 6 12 5 8 6 2 3 3 5 4 4 5 2 5 6 13 4 4 6 6 5 8 7 1 4
16 17 18 18 19 19 21 19 21 20 18 19 16 14 11 8 3 2 2 7 2 6 2 6 7 6 6 8 5 6 9 5 3 4 4 6 9 5 1 4 4 6 6 3 5 4 5
16 17 18 19 19 19 21 20 22 21 21 20 17 15 11 4 2 2 5 4 7 6 5 6 4 8 5 5 3 7 7 6 1 7 5 6 6 4 3 8 6 4 5 3 5 3 2
16 17 18 19 20 21 21 22 23 23 22 19 17 14 8 4 3 3 1 6 3 4 3 2 4 1 3 8 2 3 4 4 6 5 5 9 7 4 4 8 7 9 2 2 3 1 2
16 17 18 19 20 22 21 23 24 24 23 20 15 11 4 3 2 8 8 6 3 7 4 1 4 5 6 0 2 3 5 4 3 4 2 9 5 5 8 3 4 2 5 7 5 4 5
16 17 18 19 20 24 22 24 24 27 24 22 17 9 6 2 4 5 5 4 6 4 4 4 5 4 4 4 4 5 7 7 5 3 3 6 5 4 5 2 3 8 8 4 6 7 6
16 17 18 19 20 25 24 25 27 28 26 24 19 5 7 6 3 7 3 7 2 4 6 3 5 4 6 6 4 4 6 3 2 4 1 1 9 3 3 8 8 2 8 7 4 2 5
15 17 18 19 20 21 25 25 28 28 28 28 4 0 3 5 11 1 7 2 7 7 5 3 4 5 3 4 5 4 6 5 7 10 8 4 6 7 3 2 6 2 1 4 7 2 3
15 17 18 19 20 21 26 24 27 29 30 26 2 1 4 5 10 5 6 6 5 5 4 2 9 7 7 4 6 6 6 6 7 13 5 3 3 5 5 5 5 7 4 4 4 2 1
15 16 18 19 20 21 24 26 27 27 29 17 1 2 3 5 3 6 3 7 7 7 3 3 7 7 7 6 10 6 4 6 7 3 7 5 5 8 4 4 0 6 4 6 6 4 5
14 16 17 19 19 21 23 26 27 26 25 5 2 3 1 1 4 1 3 7 6 10 5 10 6 3 9 8 4 5 11 6 2 7 8 5 6 3 3 2 3 3 2 5 6 4 0
13 15 17 18 19 21 23 26 28 27 21 3 2 1 3 4 2 2 6 5 6 6 5 5 1 1 2 4 6 3 4 4 3 4 7 5 4 3 10 8 5 5 3 4 5 4 5
13 14 16 17 18 20 22 26 28 28 22 2 2 3 4 3 1 3 4 6 5 7 3 5 6 1 6 9 8 4 2 5 6 5 7 9 4 6 7 6 2 5 5 2 5 4 4
12 13 15 16 16 19 20 25 28 28 22 2 3 1 3 2 4 2 3 4 7 6 5 5 9 6 3 6 5 4 3 3 6 7 5 7 3 2 5 6 3 4 4 7 4 6 6
11 12 14 15 16 17 18 24 25 28 19 3 3 3 5 3 4 3 6 5 5 5 4 6 8 9 10 7 3 3 3 3 1 7 5 4 2 1 3 4 3 2 6 3 4 3 2
10 11 13 14 15 15 17 21 22 25 15 3 3 2 3 5 7 3 3 3 3 2 2 3 5 6 9 2 3 2 2 2 2 4 3 3 6 3 5 4 5 5 3 1 4 3 1
9 10 12 13 14 13 15 18 18 18 12 1 3 1 3 3 3 3 6 4 6 4 3 2 4 5 3 2 3 6 5 5 4 8 5 7 6 3 4 3 1 6 3 13 12 6 6
8 9 11 13 14 12 14 16 17 18 14 2 3 2 2 2 4 7 9 5 3 5 4 1 7 2 3 7 5 7 7 7 3 1 4 5 7 3 4 4 5 4 2 0 4 3 5
8 8 9 12 13 12 14 15 16 17 16 1 3 1 2 2 4 5 4 4 3 5 6 5 4 3 6 4 4 3 3 4 5 9 5 5 4 7 3 4 7 7 2 2 6 0 4
7 8 8 10 11 12 13 14 15 16 15 5 4 1 3 1 5 3 1 1 1 2 1 3 8 9 4 4 3 3 4 3 2 3 5 3 4 6 4 4 5 6 3 4 3 8 4
7 7 8 9 9 11 12 13 13 15 15 8 4 3 3 1 7 3 2 2 3 3 3 4 5 5 5 5 3 3 2 3 3 2 3 2 2 2 2 2 3 4 2 2 6 2 5
7 7 7 7 8 10 12 12 11 13 13 10 3 3 2 3 7 3 7 8 7 7 6 2 4 3 4 4 0 2 1 2 2 2 3 2 5 4 5 5 4 4 3 3 3 6 4
Wind_Direction
6 5 1 360 358 356 354 350 347 344 341 339 337 334 327 322 317 314 313 315 318 323 323 325 325 328 336 5 251 268 225 99 128 139 253 33 6 44 337 316 325 300 269 192 216 200 207
3 1 360 357 355 354 352 348 345 343 340 337 336 332 328 321 317 312 309 310 313 316 318 321 323 322 336 255 260 313 216 124 167 151 172 160 227 205 261 265 287 257 282 225 244 201 218
3 1 358 355 353 352 350 347 344 341 337 333 333 329 327 321 317 312 308 306 307 308 311 313 316 306 287 233 101 331 298 171 46 180 240 214 173 81 303 294 267 322 333 329 215 213 222
4 359 359 355 351 350 349 347 342 340 338 331 330 325 325 320 317 312 306 301 300 300 300 302 334 272 249 258 331 304 185 293 237 218 213 251 182 220 184 310 352 12 45 2 266 131 221
350 354 -0 357 353 348 345 344 341 338 336 332 331 327 324 319 316 311 301 298 294 290 284 269 324 139 267 311 262 249 169 230 340 321 241 282 46 38 18 51 4 11 230 279 313 148 126
351 351 353 359 356 346 333 333 339 339 336 334 329 328 323 319 316 312 301 291 276 299 194 206 255 337 279 265 258 208 169 140 10 348 4 44 50 30 38 63 240 296 332 302 273 225 56
350 349 348 344 340 337 336 339 341 340 338 336 333 328 322 316 314 316 338 80 32 355 256 194 199 254 285 289 277 236 130 90 56 49 224 348 39 249 245 184 216 269 258 284 286 243 102
350 347 344 342 338 338 343 343 341 340 339 336 335 331 324 313 306 317 2 181 207 203 295 221 239 282 272 250 324 284 95 135 116 214 140 12 251 248 221 179 218 242 265 274 277 71 120
349 346 343 341 340 342 345 341 341 339 338 338 331 333 324 314 316 340 213 236 262 26 67 288 183 201 222 145 206 245 130 173 166 185 175 165 244 17 251 267 198 269 212 226 238 9 27
348 346 344 342 341 343 345 342 341 338 338 336 333 334 323 309 335 232 248 250 259 147 53 271 228 264 166 167 258 215 172 139 198 225 172 230 279 253 273 252 144 248 198 203 283 60 270
347 347 346 344 342 345 344 341 341 339 335 333 331 332 312 219 306 198 221 334 150 62 20 163 205 0 148 146 183 226 178 70 189 212 91 257 285 311 277 220 162 230 102 59 348 137 35
347 347 348 346 345 347 342 341 340 336 334 332 328 327 286 195 240 245 308 310 66 46 259 257 163 165 115 162 295 63 149 81 160 175 234 246 251 216 220 273 183 62 63 42 56 52 22
344 344 346 345 346 349 343 340 336 336 335 331 319 283 207 215 224 318 280 60 47 137 323 189 190 148 145 179 233 169 176 195 169 111 332 315 258 253 192 220 13 72 58 352 356 9 229
339 340 342 343 346 350 343 340 338 337 336 336 331 193 230 239 283 350 47 52 175 225 250 278 139 100 169 158 238 160 121 211 236 84 107 141 333 292 169 186 177 126 137 149 226 233 270
335 337 339 340 342 342 346 340 337 339 339 340 340 183 262 250 205 81 70 83 216 210 242 105 46 96 284 231 171 127 175 214 211 171 172 158 278 293 183 127 115 135 54 182 105 358 53
332 336 337 338 339 340 346 339 338 342 341 338 299 298 257 140 154 85 79 236 252 227 333 312 181 161 201 227 156 157 169 211 220 190 153 201 347 267 320 63 23 112 150 53 14 124 258
330 333 335 336 338 339 342 342 343 341 340 335 11 42 280 174 105 53 163 237 266 244 245 219 220 153 191 186 178 167 208 273 195 143 139 144 103 292 46 29 251 6 16 65 111 107 155
327 331 334 336 338 338 342 343 344 344 341 29 343 56 304 198 64 46 190 209 293 294 302 246 174 173 173 173 140 167 191 241 42 131 147 185 161 112 206 245 323 159 81 108 113 275 8
325 329 333 336 337 340 344 345 344 345 347 293 61 262 311 86 168 259 288 290 257 292 285 337 58 159 139 119 103 130 100 346 178 140 160 184 28 46 344 355 352 55 347 105 96 76 203
323 329 332 336 337 341 345 348 345 346 353 104 51 63 334 45 108 123 332 286 308 307 310 12 334 116 94 44 21 88 80 36 20 51 62 88 83 142 175 212 228 323 333 99 128 129 196
319 326 331 334 337 341 346 350 348 347 353 344 24 31 171 265 278 243 181 265 291 318 347 4 4 33 130 80 38 50 24 22 28 356 57 87 122 155 211 231 232 245 297 328 195 213 172
313 321 329 332 335 340 347 353 353 349 354 45 57 38 343 272 291 307 170 232 163 254 59 0 86 34 50 85 148 113 107 51 113 10 59 18 196 107 277 279 9 307 326 23 37 89 67
304 316 326 331 333 339 347 355 357 358 356 28 327 334 100 293 325 21 307 330 24 173 31 95 136 77 49 63 186 243 196 164 150 146 148 120 133 106 258 323 352 14 356 30 85 14 223
288 309 321 329 333 338 345 353 357 359 14 269 269 48 49 294 331 311 334 359 33 352 106 66 79 102 222 28 63 33 38 323 220 245 161 142 114 114 210 25 351 243 128 103 97 31 352
282 301 316 326 328 336 344 349 352 354 351 288 278 68 88 284 271 316 341 350 349 346 66 59 17 6 14 43 47 21 347 9 299 160 225 185 126 113 150 175 276 160 222 99 126 347 336
274 293 310 322 329 339 341 345 348 352 348 351 266 197 117 123 249 280 313 360 20 352 9 355 328 343 63 81 80 96 228 241 307 327 75 69 72 120 135 151 207 236 226 138 122 309 284
269 289 305 319 323 331 336 341 346 350 348 336 278 242 111 157 267 327 359 260 358 71 102 321 343 357 39 53 82 160 251 233 277 302 331 15 18 151 158 197 281 251 292 119 190 223 186
263 282 298 313 317 324 331 335 343 349 348 357 273 284 92 213 277 244 289 80 12 50 112 285 36 349 35 64 129 209 166 272 19 312 299 176 112 219 89 119 245 6 342 186 200 103 151
262 281 288 304 310 320 328 330 337 343 347 360 299 335 332 172 246 269 256 246 198 200 144 5 174 175 187 95 195 110 19 16 153 282 341 341 178 182 168 213 259 307 106 56 84 127 158